Time,TemperatureF,DewpointF,PressureIn,WindDirection,WindDirectionDegrees,WindSpeedMPH,WindSpeedGustMPH,Humidity,HourlyPrecipIn,Conditions,Clouds,dailyrainin,SoftwareType,DateUTC
2013-01-31 00:00:00,59.6,57.3,29.73,WSW,241,6.0,6.0,92,0.00,,,0.15,Wunderground v.1.15,2013-01-31 05:00:00,
2013-01-31 00:01:00,59.6,57.3,29.73,WSW,238,4.0,6.0,92,0.00,,,0.00,Wunderground v.1.15,2013-01-31 05:01:00,
2013-01-31 00:07:00,59.3,57.3,29.73,West,281,2.0,6.0,93,0.00,,,0.00,Wunderground v.1.15,2013-01-31 05:07:00,
2013-01-31 00:10:00,59.0,56.7,29.73,West,262,4.0,4.0,92,0.00,,,0.00,Wunderground v.1.15,2013-01-31 05:10:00,
2013-01-31 00:11:00,58.9,56.6,29.73,WSW,243,5.0,5.0,92,0.00,,,0.00,Wunderground v.1.15,2013-01-31 05:11:00,
2013-01-31 00:16:00,58.3,56.0,29.74,WSW,239,3.0,10.0,92,0.00,,,0.00,Wunderground v.1.15,2013-01-31 05:16:00,
2013-01-31 00:21:00,57.8,55.5,29.74,WSW,253,2.0,5.0,92,0.00,,,0.00,Wunderground v.1.15,2013-01-31 05:21:00,
2013-01-31 00:26:00,57.3,55.3,29.74,WSW,252,5.0,6.0,93,0.00,,,0.00,Wunderground v.1.15,2013-01-31 05:26:00,
2013-01-31 00:32:00,56.7,54.7,29.74,West,280,3.0,8.0,93,0.00,,,0.00,Wunderground v.1.15,2013-01-31 05:32:00,
2013-01-31 00:38:00,56.3,54.6,29.74,WSW,248,3.0,8.0,94,0.00,,,0.00,Wunderground v.1.15,2013-01-31 05:38:00,
2013-01-31 00:43:00,56.0,54.0,29.74,West,281,3.0,7.0,93,0.00,,,0.00,Wunderground v.1.15,2013-01-31 05:43:00,
2013-01-31 00:48:00,55.6,53.3,29.75,SW,236,7.0,7.0,92,0.00,,,0.00,Wunderground v.1.15,2013-01-31 05:48:00,
2013-01-31 00:54:00,55.1,52.8,29.75,WSW,248,2.0,6.0,92,0.00,,,0.00,Wunderground v.1.15,2013-01-31 05:54:00,
2013-01-31 01:00:00,54.8,52.8,29.75,WSW,252,2.0,3.0,93,0.00,,,0.01,Wunderground v.1.15,2013-01-31 06:00:00,
2013-01-31 01:06:00,54.4,52.7,29.75,WSW,253,1.0,5.0,94,0.00,,,0.01,Wunderground v.1.15,2013-01-31 06:06:00,
2013-01-31 01:11:00,54.2,52.8,29.75,WSW,250,6.0,6.0,95,0.06,,,0.02,Wunderground v.1.15,2013-01-31 06:11:00,
2013-01-31 01:17:00,53.9,52.5,29.75,WSW,253,5.0,6.0,95,0.08,,,0.03,Wunderground v.1.15,2013-01-31 06:17:00,
2013-01-31 01:23:00,53.8,52.7,29.75,WSW,256,1.0,2.0,96,0.07,,,0.03,Wunderground v.1.15,2013-01-31 06:23:00,
2013-01-31 01:29:00,53.3,52.2,29.75,WSW,250,1.0,5.0,96,0.04,,,0.03,Wunderground v.1.15,2013-01-31 06:29:00,
2013-01-31 01:34:00,53.1,52.0,29.75,WSW,257,2.0,5.0,96,0.00,,,0.04,Wunderground v.1.15,2013-01-31 06:34:00,
2013-01-31 01:40:00,52.9,51.8,29.75,WSW,242,1.0,3.0,96,0.08,,,0.05,Wunderground v.1.15,2013-01-31 06:40:00,
2013-01-31 01:45:00,52.9,51.8,29.76,WSW,238,1.0,4.0,96,0.08,,,0.05,Wunderground v.1.15,2013-01-31 06:45:00,
2013-01-31 01:51:00,52.6,51.5,29.76,WSW,253,2.0,3.0,96,0.05,,,0.05,Wunderground v.1.15,2013-01-31 06:51:00,
2013-01-31 01:57:00,52.5,51.4,29.76,WSW,253,2.0,5.0,96,0.00,,,0.05,Wunderground v.1.15,2013-01-31 06:57:00,
2013-01-31 02:02:00,52.3,51.2,29.77,WSW,239,3.0,3.0,96,0.00,,,0.05,Wunderground v.1.15,2013-01-31 07:02:00,
2013-01-31 02:07:00,52.0,50.9,29.77,WSW,246,3.0,6.0,96,0.00,,,0.05,Wunderground v.1.15,2013-01-31 07:07:00,
2013-01-31 02:12:00,51.9,50.8,29.77,WSW,242,3.0,5.0,96,0.00,,,0.05,Wunderground v.1.15,2013-01-31 07:12:00,
2013-01-31 02:17:00,51.9,50.5,29.77,WSW,238,5.0,5.0,95,0.00,,,0.05,Wunderground v.1.15,2013-01-31 07:17:00,
2013-01-31 02:22:00,51.9,50.5,29.77,WSW,249,1.0,3.0,95,0.00,,,0.05,Wunderground v.1.15,2013-01-31 07:22:00,
2013-01-31 02:27:00,51.9,50.2,29.77,WSW,242,3.0,7.0,94,0.00,,,0.05,Wunderground v.1.15,2013-01-31 07:27:00,
2013-01-31 02:32:00,52.0,50.3,29.77,WSW,241,4.0,4.0,94,0.00,,,0.05,Wunderground v.1.15,2013-01-31 07:32:00,
2013-01-31 02:37:00,52.0,50.0,29.77,West,262,0.0,5.0,93,0.00,,,0.05,Wunderground v.1.15,2013-01-31 07:37:00,
2013-01-31 02:42:00,52.2,49.9,29.77,WSW,250,1.0,3.0,92,0.00,,,0.05,Wunderground v.1.15,2013-01-31 07:42:00,
2013-01-31 02:47:00,52.3,50.0,29.78,WSW,238,3.0,6.0,92,0.00,,,0.05,Wunderground v.1.15,2013-01-31 07:47:00,
2013-01-31 02:52:00,52.3,50.0,29.78,WSW,248,3.0,5.0,92,0.00,,,0.05,Wunderground v.1.15,2013-01-31 07:52:00,
2013-01-31 02:57:00,52.5,49.9,29.78,WSW,250,3.0,7.0,91,0.00,,,0.05,Wunderground v.1.15,2013-01-31 07:57:00,
2013-01-31 03:02:00,52.6,49.8,29.80,WNW,287,1.0,5.0,90,0.00,,,0.05,Wunderground v.1.15,2013-01-31 08:02:00,
2013-01-31 03:07:00,52.9,49.7,29.80,WSW,246,2.0,7.0,89,0.00,,,0.05,Wunderground v.1.15,2013-01-31 08:07:00,
2013-01-31 03:12:00,53.2,49.7,29.80,West,259,6.0,6.0,88,0.00,,,0.05,Wunderground v.1.15,2013-01-31 08:12:00,
2013-01-31 03:17:00,53.3,49.8,29.80,WSW,246,1.0,7.0,88,0.00,,,0.05,Wunderground v.1.15,2013-01-31 08:17:00,
2013-01-31 03:22:00,53.3,49.5,29.80,WSW,248,3.0,6.0,87,0.00,,,0.05,Wunderground v.1.15,2013-01-31 08:22:00,
2013-01-31 03:27:00,53.3,49.5,29.80,WSW,248,1.0,6.0,87,0.00,,,0.05,Wunderground v.1.15,2013-01-31 08:27:00,
2013-01-31 03:32:00,53.3,49.5,29.80,WSW,239,3.0,5.0,87,0.00,,,0.05,Wunderground v.1.15,2013-01-31 08:32:00,
2013-01-31 03:37:00,53.3,49.5,29.80,WSW,246,1.0,5.0,87,0.00,,,0.05,Wunderground v.1.15,2013-01-31 08:37:00,
2013-01-31 03:42:00,53.3,49.5,29.80,WSW,243,2.0,5.0,87,0.00,,,0.05,Wunderground v.1.15,2013-01-31 08:42:00,
2013-01-31 03:47:00,53.3,49.8,29.80,WSW,243,0.0,5.0,88,0.00,,,0.05,Wunderground v.1.15,2013-01-31 08:47:00,
2013-01-31 03:52:00,53.2,49.7,29.80,WSW,243,0.0,2.0,88,0.00,,,0.05,Wunderground v.1.15,2013-01-31 08:52:00,
2013-01-31 03:57:00,53.2,49.7,29.80,WSW,256,2.0,5.0,88,0.00,,,0.05,Wunderground v.1.15,2013-01-31 08:57:00,
2013-01-31 04:02:00,53.3,49.8,29.82,WSW,248,2.0,3.0,88,0.00,,,0.05,Wunderground v.1.15,2013-01-31 09:02:00,
2013-01-31 04:07:00,53.3,49.8,29.82,WSW,250,2.0,3.0,88,0.00,,,0.05,Wunderground v.1.15,2013-01-31 09:07:00,
2013-01-31 04:12:00,53.3,49.8,29.82,WSW,239,2.0,6.0,88,0.00,,,0.05,Wunderground v.1.15,2013-01-31 09:12:00,
2013-01-31 04:17:00,53.3,49.8,29.82,West,259,3.0,6.0,88,0.00,,,0.05,Wunderground v.1.15,2013-01-31 09:17:00,
2013-01-31 04:23:00,53.2,49.1,29.82,WSW,245,5.0,5.0,86,0.00,,,0.05,Wunderground v.1.15,2013-01-31 09:23:00,
2013-01-31 04:28:00,53.2,48.8,29.82,WSW,256,2.0,5.0,85,0.00,,,0.05,Wunderground v.1.15,2013-01-31 09:28:00,
2013-01-31 04:33:00,52.9,47.9,29.83,WSW,253,3.0,7.0,83,0.00,,,0.05,Wunderground v.1.15,2013-01-31 09:33:00,
2013-01-31 04:38:00,52.8,46.5,29.83,WSW,255,4.0,7.0,79,0.00,,,0.05,Wunderground v.1.15,2013-01-31 09:38:00,
2013-01-31 04:43:00,52.8,45.8,29.83,WSW,245,4.0,8.0,77,0.00,,,0.05,Wunderground v.1.15,2013-01-31 09:43:00,
2013-01-31 04:48:00,52.6,45.6,29.83,WSW,257,0.0,8.0,77,0.00,,,0.05,Wunderground v.1.15,2013-01-31 09:48:00,
2013-01-31 04:53:00,52.6,44.9,29.83,SW,233,7.0,7.0,75,0.00,,,0.05,Wunderground v.1.15,2013-01-31 09:53:00,
2013-01-31 04:58:00,52.5,44.8,29.83,WSW,246,5.0,7.0,75,0.00,,,0.05,Wunderground v.1.15,2013-01-31 09:58:00,
2013-01-31 05:03:00,52.3,44.6,29.84,WSW,245,6.0,6.0,75,0.00,,,0.05,Wunderground v.1.15,2013-01-31 10:03:00,
2013-01-31 05:08:00,52.2,44.2,29.84,WSW,256,6.0,6.0,74,0.00,,,0.05,Wunderground v.1.15,2013-01-31 10:08:00,
2013-01-31 05:13:00,52.0,44.0,29.84,WSW,242,2.0,6.0,74,0.00,,,0.05,Wunderground v.1.15,2013-01-31 10:13:00,
2013-01-31 05:18:00,51.9,43.9,29.85,SW,232,6.0,8.0,74,0.00,,,0.05,Wunderground v.1.15,2013-01-31 10:18:00,
2013-01-31 05:23:00,51.7,43.3,29.85,WSW,242,1.0,8.0,73,0.00,,,0.05,Wunderground v.1.15,2013-01-31 10:23:00,
2013-01-31 05:28:00,51.6,43.2,29.85,WSW,248,1.0,8.0,73,0.00,,,0.05,Wunderground v.1.15,2013-01-31 10:28:00,
2013-01-31 05:33:00,51.4,43.4,29.85,WSW,242,5.0,11.0,74,0.00,,,0.05,Wunderground v.1.15,2013-01-31 10:33:00,
2013-01-31 05:38:00,51.3,42.6,29.85,WSW,253,6.0,11.0,72,0.00,,,0.05,Wunderground v.1.15,2013-01-31 10:38:00,
2013-01-31 05:43:00,51.0,41.2,29.85,WSW,243,6.0,8.0,69,0.00,,,0.05,Wunderground v.1.15,2013-01-31 10:43:00,
2013-01-31 05:48:00,50.5,40.7,29.88,WSW,243,2.0,8.0,69,0.00,,,0.05,Wunderground v.1.15,2013-01-31 10:48:00,
2013-01-31 05:53:00,50.2,40.4,29.88,West,263,1.0,4.0,69,0.00,,,0.05,Wunderground v.1.15,2013-01-31 10:53:00,
2013-01-31 05:58:00,49.8,38.5,29.88,West,263,5.0,10.0,65,0.00,,,0.05,Wunderground v.1.15,2013-01-31 10:58:00,
2013-01-31 06:03:00,49.5,38.2,29.89,WSW,238,7.0,9.0,65,0.00,,,0.05,Wunderground v.1.15,2013-01-31 11:03:00,
2013-01-31 06:08:00,49.1,37.8,29.89,WSW,252,1.0,9.0,65,0.00,,,0.05,Wunderground v.1.15,2013-01-31 11:08:00,
2013-01-31 06:13:00,48.8,37.6,29.89,West,262,2.0,5.0,65,0.00,,,0.05,Wunderground v.1.15,2013-01-31 11:13:00,
2013-01-31 06:18:00,48.5,37.3,29.90,WSW,248,2.0,5.0,65,0.00,,,0.05,Wunderground v.1.15,2013-01-31 11:18:00,
2013-01-31 06:23:00,48.3,35.9,29.90,WSW,250,3.0,6.0,62,0.00,,,0.05,Wunderground v.1.15,2013-01-31 11:23:00,
2013-01-31 06:28:00,48.0,35.2,29.90,WSW,250,2.0,6.0,61,0.00,,,0.05,Wunderground v.1.15,2013-01-31 11:28:00,
2013-01-31 06:33:00,47.9,35.1,29.92,WSW,256,3.0,4.0,61,0.00,,,0.05,Wunderground v.1.15,2013-01-31 11:33:00,
2013-01-31 06:38:00,47.7,34.9,29.92,West,276,2.0,5.0,61,0.00,,,0.05,Wunderground v.1.15,2013-01-31 11:38:00,
2013-01-31 06:43:00,47.6,34.8,29.92,WSW,257,2.0,4.0,61,0.00,,,0.05,Wunderground v.1.15,2013-01-31 11:43:00,
2013-01-31 06:48:00,47.4,34.6,29.92,WSW,250,2.0,6.0,61,0.00,,,0.05,Wunderground v.1.15,2013-01-31 11:48:00,
2013-01-31 06:54:00,47.3,34.9,29.92,WSW,243,0.0,3.0,62,0.00,,,0.05,Wunderground v.1.15,2013-01-31 11:54:00,
2013-01-31 06:59:00,47.1,35.1,29.92,SW,228,2.0,10.0,63,0.00,,,0.05,Wunderground v.1.15,2013-01-31 11:59:00,
2013-01-31 07:04:00,47.0,35.0,29.93,SW,229,2.0,6.0,63,0.00,,,0.05,Wunderground v.1.15,2013-01-31 12:04:00,
2013-01-31 07:09:00,46.8,34.9,29.93,WNW,296,1.0,6.0,63,0.00,,,0.05,Wunderground v.1.15,2013-01-31 12:09:00,
2013-01-31 07:14:00,46.7,34.8,29.93,West,265,5.0,5.0,63,0.00,,,0.05,Wunderground v.1.15,2013-01-31 12:14:00,
2013-01-31 07:19:00,46.5,34.6,29.95,WSW,245,3.0,5.0,63,0.00,,,0.05,Wunderground v.1.15,2013-01-31 12:19:00,
2013-01-31 07:24:00,46.4,34.5,29.95,WSW,243,2.0,5.0,63,0.00,,,0.05,Wunderground v.1.15,2013-01-31 12:24:00,
2013-01-31 07:29:00,46.4,35.3,29.97,WSW,248,0.0,5.0,65,0.00,,,0.05,Wunderground v.1.15,2013-01-31 12:29:00,
2013-01-31 07:34:00,46.2,34.7,29.97,WSW,256,1.0,6.0,64,0.00,,,0.05,Wunderground v.1.15,2013-01-31 12:34:00,
2013-01-31 07:39:00,46.2,35.1,29.97,WNW,284,1.0,6.0,65,0.00,,,0.05,Wunderground v.1.15,2013-01-31 12:39:00,
2013-01-31 07:44:00,46.1,34.6,29.96,WSW,238,1.0,5.0,64,0.00,,,0.05,Wunderground v.1.15,2013-01-31 12:44:00,
2013-01-31 07:49:00,46.2,35.1,29.96,West,262,1.0,5.0,65,0.00,,,0.05,Wunderground v.1.15,2013-01-31 12:49:00,
2013-01-31 07:54:00,46.2,35.1,29.96,WSW,249,2.0,3.0,65,0.00,,,0.05,Wunderground v.1.15,2013-01-31 12:54:00,
2013-01-31 07:59:00,46.2,35.1,29.96,WSW,243,1.0,4.0,65,0.00,,,0.05,Wunderground v.1.15,2013-01-31 12:59:00,
2013-01-31 08:04:00,46.2,35.5,29.96,WSW,243,1.0,3.0,66,0.00,,,0.05,Wunderground v.1.15,2013-01-31 13:04:00,
2013-01-31 08:09:00,46.4,35.7,29.96,WSW,245,0.0,3.0,66,0.00,,,0.05,Wunderground v.1.15,2013-01-31 13:09:00,
2013-01-31 08:14:00,46.5,35.7,29.97,WSW,246,6.0,6.0,66,0.00,,,0.05,Wunderground v.1.15,2013-01-31 13:14:00,
2013-01-31 08:19:00,46.7,35.9,29.97,WSW,249,1.0,6.0,66,0.00,,,0.05,Wunderground v.1.15,2013-01-31 13:19:00,
2013-01-31 08:24:00,46.8,36.0,29.97,WSW,252,1.0,4.0,66,0.00,,,0.05,Wunderground v.1.15,2013-01-31 13:24:00,
2013-01-31 08:29:00,47.0,35.8,29.99,WSW,245,6.0,6.0,65,0.00,,,0.05,Wunderground v.1.15,2013-01-31 13:29:00,
2013-01-31 08:34:00,47.0,35.8,29.99,WSW,243,1.0,8.0,65,0.00,,,0.05,Wunderground v.1.15,2013-01-31 13:34:00,
2013-01-31 08:39:00,47.3,36.5,29.99,WSW,248,2.0,8.0,66,0.00,,,0.05,Wunderground v.1.15,2013-01-31 13:39:00,
2013-01-31 08:44:00,47.4,36.2,30.00,WSW,252,1.0,7.0,65,0.00,,,0.05,Wunderground v.1.15,2013-01-31 13:44:00,
2013-01-31 08:49:00,47.6,36.4,30.00,WSW,250,3.0,7.0,65,0.00,,,0.05,Wunderground v.1.15,2013-01-31 13:49:00,
2013-01-31 08:54:00,47.6,36.0,30.00,WSW,252,6.0,7.0,64,0.00,,,0.05,Wunderground v.1.15,2013-01-31 13:54:00,
2013-01-31 09:00:00,47.6,35.2,30.01,WSW,249,2.0,3.0,62,0.00,,,0.05,Wunderground v.1.15,2013-01-31 14:00:00,
2013-01-31 09:05:00,47.6,35.2,30.01,SW,225,3.0,5.0,62,0.00,,,0.05,Wunderground v.1.15,2013-01-31 14:05:00,
2013-01-31 09:10:00,47.4,34.6,30.01,WSW,253,3.0,3.0,61,0.00,,,0.05,Wunderground v.1.15,2013-01-31 14:10:00,
2013-01-31 09:15:00,47.3,34.9,30.01,WSW,248,4.0,6.0,62,0.00,,,0.05,Wunderground v.1.15,2013-01-31 14:15:00,
2013-01-31 09:20:00,47.3,34.5,30.01,West,280,1.0,3.0,61,0.00,,,0.05,Wunderground v.1.15,2013-01-31 14:20:00,
2013-01-31 09:25:00,47.4,35.0,30.01,West,276,2.0,6.0,62,0.00,,,0.05,Wunderground v.1.15,2013-01-31 14:25:00,
2013-01-31 09:30:00,47.6,34.4,30.01,West,259,1.0,2.0,60,0.00,,,0.05,Wunderground v.1.15,2013-01-31 14:30:00,
2013-01-31 09:35:00,47.7,33.6,30.01,WSW,252,1.0,3.0,58,0.00,,,0.05,Wunderground v.1.15,2013-01-31 14:35:00,
2013-01-31 09:40:00,47.9,33.8,30.01,West,272,2.0,2.0,58,0.00,,,0.05,Wunderground v.1.15,2013-01-31 14:40:00,
2013-01-31 09:45:00,47.9,31.6,30.01,SW,225,7.0,7.0,53,0.00,,,0.05,Wunderground v.1.15,2013-01-31 14:45:00,
2013-01-31 09:50:00,47.6,31.3,30.01,WSW,257,2.0,3.0,53,0.00,,,0.05,Wunderground v.1.15,2013-01-31 14:50:00,
2013-01-31 09:55:00,47.3,30.1,30.01,WSW,239,6.0,7.0,51,0.00,,,0.05,Wunderground v.1.15,2013-01-31 14:55:00,
2013-01-31 10:00:00,47.4,30.2,30.02,NW,304,2.0,3.0,51,0.00,,,0.05,Wunderground v.1.15,2013-01-31 15:00:00,
2013-01-31 10:05:00,47.3,29.1,30.02,WSW,257,1.0,5.0,49,0.00,,,0.05,Wunderground v.1.15,2013-01-31 15:05:00,
2013-01-31 10:10:00,47.4,28.7,30.02,West,263,4.0,7.0,48,0.00,,,0.05,Wunderground v.1.15,2013-01-31 15:10:00,
2013-01-31 10:15:00,47.3,28.6,30.02,WSW,245,5.0,7.0,48,0.00,,,0.05,Wunderground v.1.15,2013-01-31 15:15:00,
2013-01-31 10:20:00,47.6,29.4,30.02,WNW,297,1.0,3.0,49,0.00,,,0.05,Wunderground v.1.15,2013-01-31 15:20:00,
2013-01-31 10:25:00,48.2,30.9,30.02,WSW,249,2.0,6.0,51,0.00,,,0.05,Wunderground v.1.15,2013-01-31 15:25:00,
2013-01-31 10:30:00,48.5,31.2,30.03,West,263,2.0,2.0,51,0.00,,,0.05,Wunderground v.1.15,2013-01-31 15:30:00,
2013-01-31 10:35:00,48.5,31.2,30.03,WNW,286,2.0,6.0,51,0.00,,,0.05,Wunderground v.1.15,2013-01-31 15:35:00,
2013-01-31 10:40:00,48.5,30.2,30.03,NW,305,3.0,3.0,49,0.00,,,0.05,Wunderground v.1.15,2013-01-31 15:40:00,
2013-01-31 10:45:00,48.5,29.7,30.03,WNW,303,2.0,7.0,48,0.00,,,0.05,Wunderground v.1.15,2013-01-31 15:45:00,
2013-01-31 10:50:00,48.6,28.7,30.03,WSW,243,2.0,4.0,46,0.00,,,0.05,Wunderground v.1.15,2013-01-31 15:50:00,
2013-01-31 10:55:00,48.6,29.3,30.03,West,265,3.0,6.0,47,0.00,,,0.05,Wunderground v.1.15,2013-01-31 15:55:00,
2013-01-31 11:01:00,48.8,28.9,30.03,WSW,252,2.0,7.0,46,0.00,,,0.05,Wunderground v.1.15,2013-01-31 16:01:00,
2013-01-31 11:06:00,48.8,29.4,30.03,West,260,2.0,7.0,47,0.00,,,0.05,Wunderground v.1.15,2013-01-31 16:06:00,
2013-01-31 11:11:00,49.1,29.2,30.03,WNW,289,2.0,3.0,46,0.00,,,0.05,Wunderground v.1.15,2013-01-31 16:11:00,
2013-01-31 11:16:00,49.4,27.8,30.03,WSW,238,2.0,7.0,43,0.00,,,0.05,Wunderground v.1.15,2013-01-31 16:16:00,
2013-01-31 11:21:00,49.4,28.9,30.03,WNW,296,0.0,3.0,45,0.00,,,0.05,Wunderground v.1.15,2013-01-31 16:21:00,
2013-01-31 11:26:00,49.8,28.7,30.03,WSW,249,1.0,5.0,44,0.00,,,0.05,Wunderground v.1.15,2013-01-31 16:26:00,
2013-01-31 11:31:00,49.9,29.4,30.03,WSW,250,1.0,3.0,45,0.00,,,0.05,Wunderground v.1.15,2013-01-31 16:31:00,
2013-01-31 11:36:00,50.4,29.3,30.03,WSW,252,2.0,6.0,44,0.00,,,0.05,Wunderground v.1.15,2013-01-31 16:36:00,
2013-01-31 11:41:00,50.8,30.2,30.03,West,263,1.0,3.0,45,0.00,,,0.05,Wunderground v.1.15,2013-01-31 16:41:00,
2013-01-31 11:46:00,51.1,30.5,30.03,SW,236,5.0,5.0,45,0.00,,,0.05,Wunderground v.1.15,2013-01-31 16:46:00,
2013-01-31 11:51:00,51.0,28.7,30.03,West,270,1.0,3.0,42,0.00,,,0.05,Wunderground v.1.15,2013-01-31 16:51:00,
2013-01-31 11:56:00,51.0,29.8,30.03,West,263,2.0,6.0,44,0.00,,,0.05,Wunderground v.1.15,2013-01-31 16:56:00,
2013-01-31 12:01:00,51.1,30.5,30.03,WSW,248,2.0,4.0,45,0.00,,,0.05,Wunderground v.1.15,2013-01-31 17:01:00,
2013-01-31 12:06:00,51.3,29.0,30.03,WSW,245,6.0,7.0,42,0.00,,,0.05,Wunderground v.1.15,2013-01-31 17:06:00,
2013-01-31 12:11:00,51.4,29.1,30.03,WSW,253,1.0,3.0,42,0.00,,,0.05,Wunderground v.1.15,2013-01-31 17:11:00,
2013-01-31 12:16:00,51.7,31.0,30.02,WSW,255,1.0,6.0,45,0.00,,,0.05,Wunderground v.1.15,2013-01-31 17:16:00,
2013-01-31 12:21:00,51.9,29.5,30.02,WSW,253,3.0,4.0,42,0.00,,,0.05,Wunderground v.1.15,2013-01-31 17:21:00,
2013-01-31 12:26:00,52.0,30.2,30.02,WSW,249,1.0,7.0,43,0.00,,,0.05,Wunderground v.1.15,2013-01-31 17:26:00,
2013-01-31 12:31:00,52.2,28.6,30.03,West,260,1.0,5.0,40,0.00,,,0.05,Wunderground v.1.15,2013-01-31 17:31:00,
2013-01-31 12:36:00,52.3,29.3,30.03,WSW,243,2.0,5.0,41,0.00,,,0.05,Wunderground v.1.15,2013-01-31 17:36:00,
2013-01-31 12:41:00,52.3,29.3,30.03,WSW,245,2.0,3.0,41,0.00,,,0.05,Wunderground v.1.15,2013-01-31 17:41:00,
2013-01-31 12:46:00,52.8,27.9,30.01,WSW,255,2.0,6.0,38,0.00,,,0.05,Wunderground v.1.15,2013-01-31 17:46:00,
2013-01-31 12:51:00,53.1,28.1,30.01,West,280,1.0,5.0,38,0.00,,,0.05,Wunderground v.1.15,2013-01-31 17:51:00,
2013-01-31 12:56:00,53.1,26.8,30.01,WNW,297,2.0,6.0,36,0.00,,,0.05,Wunderground v.1.15,2013-01-31 17:56:00,
2013-01-31 13:02:00,53.2,26.2,30.01,NW,311,1.0,5.0,35,0.00,,,0.05,Wunderground v.1.15,2013-01-31 18:02:00,
2013-01-31 13:07:00,53.2,26.9,30.01,WSW,243,2.0,5.0,36,0.00,,,0.05,Wunderground v.1.15,2013-01-31 18:07:00,
2013-01-31 13:12:00,53.3,28.3,30.01,SW,232,2.0,4.0,38,0.00,,,0.05,Wunderground v.1.15,2013-01-31 18:12:00,
2013-01-31 13:17:00,53.5,28.5,30.00,WSW,239,2.0,7.0,38,0.00,,,0.05,Wunderground v.1.15,2013-01-31 18:17:00,
2013-01-31 13:22:00,53.8,28.1,30.00,WSW,256,2.0,4.0,37,0.00,,,0.05,Wunderground v.1.15,2013-01-31 18:22:00,
2013-01-31 13:27:00,53.9,26.8,30.00,West,262,2.0,7.0,35,0.00,,,0.05,Wunderground v.1.15,2013-01-31 18:27:00,
2013-01-31 13:32:00,53.9,25.4,30.00,NW,308,3.0,5.0,33,0.00,,,0.05,Wunderground v.1.15,2013-01-31 18:32:00,
2013-01-31 13:37:00,53.9,26.1,30.00,West,267,1.0,6.0,34,0.00,,,0.05,Wunderground v.1.15,2013-01-31 18:37:00,
2013-01-31 13:42:00,53.9,24.7,30.00,WSW,253,1.0,6.0,32,0.00,,,0.05,Wunderground v.1.15,2013-01-31 18:42:00,
2013-01-31 13:47:00,53.9,26.1,30.00,West,269,1.0,6.0,34,0.00,,,0.05,Wunderground v.1.15,2013-01-31 18:47:00,
2013-01-31 13:52:00,54.1,28.4,30.00,NW,307,3.0,3.0,37,0.00,,,0.05,Wunderground v.1.15,2013-01-31 18:52:00,
2013-01-31 13:57:00,54.2,24.2,30.00,WNW,286,1.0,8.0,31,0.00,,,0.05,Wunderground v.1.15,2013-01-31 18:57:00,
2013-01-31 14:02:00,54.2,25.7,30.01,WSW,256,1.0,7.0,33,0.00,,,0.05,Wunderground v.1.15,2013-01-31 19:02:00,
2013-01-31 14:07:00,54.5,28.1,30.01,West,262,2.0,7.0,36,0.00,,,0.05,Wunderground v.1.15,2013-01-31 19:07:00,
2013-01-31 14:12:00,54.7,28.9,30.01,WSW,238,6.0,7.0,37,0.00,,,0.05,Wunderground v.1.15,2013-01-31 19:12:00,
2013-01-31 14:17:00,54.8,27.6,30.00,WSW,239,1.0,7.0,35,0.00,,,0.05,Wunderground v.1.15,2013-01-31 19:17:00,
2013-01-31 14:22:00,55.0,25.6,30.00,SW,228,3.0,7.0,32,0.00,,,0.05,Wunderground v.1.15,2013-01-31 19:22:00,
2013-01-31 14:27:00,54.8,24.7,30.00,WSW,239,4.0,7.0,31,0.00,,,0.05,Wunderground v.1.15,2013-01-31 19:27:00,
2013-01-31 14:32:00,54.8,25.5,30.01,WSW,248,5.0,6.0,32,0.00,,,0.05,Wunderground v.1.15,2013-01-31 19:32:00,
2013-01-31 14:37:00,55.0,25.6,30.01,WSW,249,3.0,6.0,32,0.00,,,0.05,Wunderground v.1.15,2013-01-31 19:37:00,
2013-01-31 14:42:00,54.7,25.4,30.01,WSW,245,1.0,6.0,32,0.00,,,0.05,Wunderground v.1.15,2013-01-31 19:42:00,
2013-01-31 14:47:00,54.5,26.0,30.00,WSW,239,2.0,7.0,33,0.00,,,0.05,Wunderground v.1.15,2013-01-31 19:47:00,
2013-01-31 14:52:00,54.8,26.2,30.00,SW,235,4.0,6.0,33,0.00,,,0.05,Wunderground v.1.15,2013-01-31 19:52:00,
2013-01-31 14:57:00,54.8,25.5,30.00,WSW,248,2.0,9.0,32,0.00,,,0.05,Wunderground v.1.15,2013-01-31 19:57:00,
2013-01-31 15:02:00,55.0,24.9,30.01,WSW,241,5.0,8.0,31,0.00,,,0.05,Wunderground v.1.15,2013-01-31 20:02:00,
2013-01-31 15:07:00,55.0,25.6,30.01,WNW,283,3.0,8.0,32,0.00,,,0.05,Wunderground v.1.15,2013-01-31 20:07:00,
2013-01-31 15:12:00,54.8,25.5,30.01,West,277,1.0,5.0,32,0.00,,,0.05,Wunderground v.1.15,2013-01-31 20:12:00,
2013-01-31 15:17:00,55.0,26.4,30.02,WSW,248,5.0,5.0,33,0.00,,,0.05,Wunderground v.1.15,2013-01-31 20:17:00,
2013-01-31 15:22:00,55.3,25.9,30.02,West,260,2.0,4.0,32,0.00,,,0.05,Wunderground v.1.15,2013-01-31 20:22:00,
2013-01-31 15:27:00,55.3,25.1,30.02,WSW,255,3.0,7.0,31,0.00,,,0.05,Wunderground v.1.15,2013-01-31 20:27:00,
2013-01-31 15:32:00,55.3,25.9,30.01,SW,236,1.0,5.0,32,0.00,,,0.05,Wunderground v.1.15,2013-01-31 20:32:00,
2013-01-31 15:37:00,55.4,26.7,30.01,WSW,252,1.0,5.0,33,0.00,,,0.05,Wunderground v.1.15,2013-01-31 20:37:00,
2013-01-31 15:42:00,55.4,26.7,30.01,West,267,3.0,6.0,33,0.00,,,0.05,Wunderground v.1.15,2013-01-31 20:42:00,
2013-01-31 15:47:00,55.4,25.2,30.02,WSW,250,3.0,7.0,31,0.00,,,0.05,Wunderground v.1.15,2013-01-31 20:47:00,
2013-01-31 15:52:00,55.6,26.9,30.02,SW,232,3.0,6.0,33,0.00,,,0.05,Wunderground v.1.15,2013-01-31 20:52:00,
2013-01-31 15:57:00,55.6,26.2,30.02,West,273,1.0,6.0,32,0.00,,,0.05,Wunderground v.1.15,2013-01-31 20:57:00,
2013-01-31 16:02:00,55.9,26.4,30.03,WSW,255,3.0,3.0,32,0.00,,,0.05,Wunderground v.1.15,2013-01-31 21:02:00,
2013-01-31 16:07:00,55.9,27.2,30.03,West,266,2.0,6.0,33,0.00,,,0.05,Wunderground v.1.15,2013-01-31 21:07:00,
2013-01-31 16:12:00,55.6,25.4,30.03,WSW,242,5.0,6.0,31,0.00,,,0.05,Wunderground v.1.15,2013-01-31 21:12:00,
2013-01-31 16:17:00,55.3,25.1,30.03,West,273,4.0,9.0,31,0.00,,,0.05,Wunderground v.1.15,2013-01-31 21:17:00,
2013-01-31 16:22:00,55.3,25.1,30.03,West,274,3.0,7.0,31,0.00,,,0.05,Wunderground v.1.15,2013-01-31 21:22:00,
2013-01-31 16:27:00,55.4,24.4,30.03,WSW,255,1.0,7.0,30,0.00,,,0.05,Wunderground v.1.15,2013-01-31 21:27:00,
2013-01-31 16:32:00,55.6,24.6,30.04,West,279,0.0,5.0,30,0.00,,,0.05,Wunderground v.1.15,2013-01-31 21:32:00,
2013-01-31 16:37:00,56.0,25.0,30.04,West,274,2.0,6.0,30,0.00,,,0.05,Wunderground v.1.15,2013-01-31 21:37:00,
2013-01-31 16:42:00,55.7,25.5,30.04,NW,315,1.0,5.0,31,0.00,,,0.05,Wunderground v.1.15,2013-01-31 21:42:00,
2013-01-31 16:48:00,55.7,25.5,30.04,West,267,2.0,7.0,31,0.00,,,0.05,Wunderground v.1.15,2013-01-31 21:48:00,
2013-01-31 16:53:00,55.7,23.1,30.04,WSW,249,2.0,8.0,28,0.00,,,0.05,Wunderground v.1.15,2013-01-31 21:53:00,
2013-01-31 16:58:00,55.9,25.7,30.04,WSW,250,2.0,8.0,31,0.00,,,0.05,Wunderground v.1.15,2013-01-31 21:58:00,
2013-01-31 17:03:00,55.9,23.2,30.05,SW,235,1.0,7.0,28,0.00,,,0.05,Wunderground v.1.15,2013-01-31 22:03:00,
2013-01-31 17:08:00,55.7,25.5,30.05,WNW,283,2.0,7.0,31,0.00,,,0.05,Wunderground v.1.15,2013-01-31 22:08:00,
2013-01-31 17:13:00,55.4,25.2,30.05,SW,236,4.0,5.0,31,0.00,,,0.05,Wunderground v.1.15,2013-01-31 22:13:00,
2013-01-31 17:18:00,55.0,24.9,30.06,WSW,256,2.0,5.0,31,0.00,,,0.05,Wunderground v.1.15,2013-01-31 22:18:00,
2013-01-31 17:23:00,54.4,24.4,30.06,WSW,249,1.0,5.0,31,0.00,,,0.05,Wunderground v.1.15,2013-01-31 22:23:00,
2013-01-31 17:28:00,53.9,23.1,30.06,West,259,3.0,6.0,30,0.00,,,0.05,Wunderground v.1.15,2013-01-31 22:28:00,
2013-01-31 17:34:00,53.6,24.4,30.06,WSW,257,0.0,2.0,32,0.00,,,0.05,Wunderground v.1.15,2013-01-31 22:34:00,
2013-01-31 17:39:00,53.3,23.4,30.06,WSW,243,1.0,4.0,31,0.00,,,0.05,Wunderground v.1.15,2013-01-31 22:39:00,
2013-01-31 17:44:00,53.2,23.3,30.06,WSW,256,2.0,3.0,31,0.00,,,0.05,Wunderground v.1.15,2013-01-31 22:44:00,
2013-01-31 17:49:00,52.9,23.8,30.07,West,266,2.0,5.0,32,0.00,,,0.05,Wunderground v.1.15,2013-01-31 22:49:00,
2013-01-31 17:54:00,52.8,23.0,30.07,WSW,241,1.0,6.0,31,0.00,,,0.05,Wunderground v.1.15,2013-01-31 22:54:00,
2013-01-31 17:59:00,52.6,23.5,30.07,WSW,255,2.0,6.0,32,0.00,,,0.05,Wunderground v.1.15,2013-01-31 22:59:00,
2013-01-31 18:04:00,52.5,23.5,30.08,WSW,250,1.0,6.0,32,0.00,,,0.05,Wunderground v.1.15,2013-01-31 23:04:00,
2013-01-31 18:09:00,52.3,24.0,30.08,WSW,250,2.0,6.0,33,0.00,,,0.05,Wunderground v.1.15,2013-01-31 23:09:00,
2013-01-31 18:14:00,52.2,24.6,30.08,WSW,250,0.0,2.0,34,0.00,,,0.05,Wunderground v.1.15,2013-01-31 23:14:00,
2013-01-31 18:19:00,51.9,24.4,30.09,WSW,250,1.0,3.0,34,0.00,,,0.05,Wunderground v.1.15,2013-01-31 23:19:00,
2013-01-31 18:24:00,51.7,24.2,30.09,WSW,250,0.0,2.0,34,0.00,,,0.05,Wunderground v.1.15,2013-01-31 23:24:00,
2013-01-31 18:29:00,51.6,24.8,30.09,WSW,245,1.0,3.0,35,0.00,,,0.05,Wunderground v.1.15,2013-01-31 23:29:00,
2013-01-31 18:34:00,51.3,25.2,30.09,WSW,245,0.0,1.0,36,0.00,,,0.05,Wunderground v.1.15,2013-01-31 23:34:00,
2013-01-31 18:39:00,51.1,25.7,30.09,WSW,245,0.0,1.0,37,0.00,,,0.05,Wunderground v.1.15,2013-01-31 23:39:00,
2013-01-31 18:44:00,50.8,26.1,30.09,WSW,245,0.0,2.0,38,0.00,,,0.05,Wunderground v.1.15,2013-01-31 23:44:00,
2013-01-31 18:49:00,50.7,26.6,30.10,WSW,245,1.0,2.0,39,0.00,,,0.05,Wunderground v.1.15,2013-01-31 23:49:00,
2013-01-31 18:54:00,50.4,27.0,30.10,WSW,245,1.0,2.0,40,0.00,,,0.05,Wunderground v.1.15,2013-01-31 23:54:00,
2013-01-31 18:59:00,50.2,27.4,30.11,WSW,245,0.0,2.0,41,0.00,,,0.05,Wunderground v.1.15,2013-01-31 23:59:00,
2013-01-31 19:04:00,50.1,27.3,30.11,WSW,245,0.0,1.0,41,0.00,,,0.05,Wunderground v.1.15,2013-02-01 00:04:00,
2013-01-31 19:09:00,49.9,27.1,30.11,WSW,245,0.0,2.0,41,0.00,,,0.05,Wunderground v.1.15,2013-02-01 00:09:00,
2013-01-31 19:14:00,49.6,27.4,30.12,WSW,245,0.0,0.0,42,0.00,,,0.05,Wunderground v.1.15,2013-02-01 00:14:00,
2013-01-31 19:19:00,49.5,27.3,30.12,WSW,245,0.0,2.0,42,0.00,,,0.05,Wunderground v.1.15,2013-02-01 00:19:00,
2013-01-31 19:24:00,49.4,27.2,30.12,WSW,245,0.0,2.0,42,0.00,,,0.05,Wunderground v.1.15,2013-02-01 00:24:00,
2013-01-31 19:29:00,49.4,27.2,30.12,WSW,245,0.0,2.0,42,0.00,,,0.05,Wunderground v.1.15,2013-02-01 00:29:00,
2013-01-31 19:34:00,49.2,27.6,30.12,WSW,245,1.0,1.0,43,0.00,,,0.05,Wunderground v.1.15,2013-02-01 00:34:00,
2013-01-31 19:39:00,49.1,27.5,30.12,WSW,245,0.0,2.0,43,0.00,,,0.05,Wunderground v.1.15,2013-02-01 00:39:00,
2013-01-31 19:45:00,48.9,27.9,30.12,WSW,245,0.0,0.0,44,0.00,,,0.05,Wunderground v.1.15,2013-02-01 00:45:00,
2013-01-31 19:50:00,48.6,28.2,30.12,WSW,245,0.0,0.0,45,0.00,,,0.05,Wunderground v.1.15,2013-02-01 00:50:00,
2013-01-31 19:55:00,48.5,28.6,30.12,WSW,245,0.0,0.0,46,0.00,,,0.05,Wunderground v.1.15,2013-02-01 00:55:00,
2013-01-31 20:00:00,48.3,29.0,30.13,WSW,245,0.0,0.0,47,0.00,,,0.05,Wunderground v.1.15,2013-02-01 01:00:00,
2013-01-31 20:05:00,48.2,28.4,30.13,WSW,245,0.0,1.0,46,0.00,,,0.05,Wunderground v.1.15,2013-02-01 01:05:00,
2013-01-31 20:10:00,47.9,28.1,30.13,WSW,245,0.0,0.0,46,0.00,,,0.05,Wunderground v.1.15,2013-02-01 01:10:00,
2013-01-31 20:15:00,47.7,28.9,30.13,WSW,245,0.0,0.0,48,0.00,,,0.05,Wunderground v.1.15,2013-02-01 01:15:00,
2013-01-31 20:20:00,47.6,27.8,30.13,WSW,245,1.0,2.0,46,0.00,,,0.05,Wunderground v.1.15,2013-02-01 01:20:00,
2013-01-31 20:25:00,47.6,28.3,30.13,WSW,245,1.0,2.0,47,0.00,,,0.05,Wunderground v.1.15,2013-02-01 01:25:00,
2013-01-31 20:30:00,47.4,28.2,30.14,WSW,245,0.0,1.0,47,0.00,,,0.05,Wunderground v.1.15,2013-02-01 01:30:00,
2013-01-31 20:35:00,47.4,28.2,30.14,WSW,245,0.0,1.0,47,0.00,,,0.05,Wunderground v.1.15,2013-02-01 01:35:00,
2013-01-31 20:40:00,47.3,28.1,30.14,WSW,245,0.0,2.0,47,0.00,,,0.05,Wunderground v.1.15,2013-02-01 01:40:00,
2013-01-31 20:45:00,47.3,28.1,30.14,WSW,245,1.0,2.0,47,0.00,,,0.05,Wunderground v.1.15,2013-02-01 01:45:00,
2013-01-31 20:50:00,47.1,27.9,30.14,WSW,245,0.0,0.0,47,0.00,,,0.05,Wunderground v.1.15,2013-02-01 01:50:00,
2013-01-31 20:55:00,47.1,27.9,30.14,WSW,245,1.0,2.0,47,0.00,,,0.05,Wunderground v.1.15,2013-02-01 01:55:00,
2013-01-31 21:00:00,47.1,28.4,30.15,WSW,245,0.0,1.0,48,0.00,,,0.05,Wunderground v.1.15,2013-02-01 02:00:00,
2013-01-31 21:05:00,47.0,28.3,30.15,WSW,245,0.0,2.0,48,0.00,,,0.05,Wunderground v.1.15,2013-02-01 02:05:00,
2013-01-31 21:10:00,47.0,28.3,30.15,WSW,245,0.0,0.0,48,0.00,,,0.05,Wunderground v.1.15,2013-02-01 02:10:00,
2013-01-31 21:15:00,47.0,28.3,30.16,WSW,245,0.0,0.0,48,0.00,,,0.05,Wunderground v.1.15,2013-02-01 02:15:00,
2013-01-31 21:20:00,47.0,28.3,30.16,WSW,245,0.0,0.0,48,0.00,,,0.05,Wunderground v.1.15,2013-02-01 02:20:00,
2013-01-31 21:25:00,47.0,28.3,30.16,WSW,245,0.0,2.0,48,0.00,,,0.05,Wunderground v.1.15,2013-02-01 02:25:00,
2013-01-31 21:30:00,47.0,28.3,30.15,WSW,245,0.0,1.0,48,0.00,,,0.05,Wunderground v.1.15,2013-02-01 02:30:00,
2013-01-31 21:35:00,47.0,28.8,30.15,WSW,245,0.0,3.0,49,0.00,,,0.05,Wunderground v.1.15,2013-02-01 02:35:00,
2013-01-31 21:40:00,47.0,29.3,30.15,WSW,245,0.0,0.0,50,0.00,,,0.05,Wunderground v.1.15,2013-02-01 02:40:00,
2013-01-31 21:46:00,46.8,29.1,30.17,WSW,245,0.0,0.0,50,0.00,,,0.05,Wunderground v.1.15,2013-02-01 02:46:00,
2013-01-31 21:51:00,46.8,29.1,30.17,WSW,245,0.0,2.0,50,0.00,,,0.05,Wunderground v.1.15,2013-02-01 02:51:00,
2013-01-31 21:56:00,46.8,29.1,30.17,WSW,245,0.0,2.0,50,0.00,,,0.05,Wunderground v.1.15,2013-02-01 02:56:00,
2013-01-31 22:01:00,46.8,29.1,30.17,WSW,245,0.0,0.0,50,0.00,,,0.05,Wunderground v.1.15,2013-02-01 03:01:00,
2013-01-31 22:06:00,46.8,29.1,30.17,WSW,245,0.0,2.0,50,0.00,,,0.05,Wunderground v.1.15,2013-02-01 03:06:00,
2013-01-31 22:11:00,46.7,29.5,30.17,WSW,245,0.0,0.0,51,0.00,,,0.05,Wunderground v.1.15,2013-02-01 03:11:00,
2013-01-31 22:16:00,46.8,29.1,30.18,WSW,249,3.0,3.0,50,0.00,,,0.05,Wunderground v.1.15,2013-02-01 03:16:00,
2013-01-31 22:21:00,46.8,29.1,30.18,WSW,249,1.0,1.0,50,0.00,,,0.05,Wunderground v.1.15,2013-02-01 03:21:00,
2013-01-31 22:26:00,47.0,28.3,30.18,WSW,249,0.0,5.0,48,0.00,,,0.05,Wunderground v.1.15,2013-02-01 03:26:00,
2013-01-31 22:31:00,46.8,28.6,30.19,WSW,249,1.0,2.0,49,0.00,,,0.05,Wunderground v.1.15,2013-02-01 03:31:00,
2013-01-31 22:36:00,46.8,28.6,30.19,WSW,245,3.0,3.0,49,0.00,,,0.05,Wunderground v.1.15,2013-02-01 03:36:00,
2013-01-31 22:41:00,46.8,28.6,30.19,West,260,0.0,2.0,49,0.00,,,0.05,Wunderground v.1.15,2013-02-01 03:41:00,
2013-01-31 22:46:00,46.7,29.0,30.19,West,260,0.0,2.0,50,0.00,,,0.05,Wunderground v.1.15,2013-02-01 03:46:00,
2013-01-31 22:51:00,46.5,28.8,30.19,West,260,1.0,2.0,50,0.00,,,0.05,Wunderground v.1.15,2013-02-01 03:51:00,
2013-01-31 22:56:00,46.4,29.2,30.19,West,260,0.0,2.0,51,0.00,,,0.05,Wunderground v.1.15,2013-02-01 03:56:00,
2013-01-31 23:01:00,46.2,29.1,30.19,West,260,0.0,1.0,51,0.00,,,0.05,Wunderground v.1.15,2013-02-01 04:01:00,
2013-01-31 23:06:00,46.1,29.4,30.19,West,260,0.0,1.0,52,0.00,,,0.05,Wunderground v.1.15,2013-02-01 04:06:00,
2013-01-31 23:11:00,46.1,29.0,30.19,West,260,1.0,1.0,51,0.00,,,0.05,Wunderground v.1.15,2013-02-01 04:11:00,
2013-01-31 23:16:00,46.0,29.3,30.19,West,260,1.0,2.0,52,0.00,,,0.05,Wunderground v.1.15,2013-02-01 04:16:00,
2013-01-31 23:21:00,45.8,29.2,30.19,West,260,0.0,0.0,52,0.00,,,0.05,Wunderground v.1.15,2013-02-01 04:21:00,
2013-01-31 23:26:00,45.7,29.1,30.19,West,260,1.0,2.0,52,0.00,,,0.05,Wunderground v.1.15,2013-02-01 04:26:00,
2013-01-31 23:31:00,45.5,29.3,30.20,West,260,0.0,0.0,53,0.00,,,0.05,Wunderground v.1.15,2013-02-01 04:31:00,
2013-01-31 23:36:00,45.4,29.3,30.20,West,260,0.0,1.0,53,0.00,,,0.05,Wunderground v.1.15,2013-02-01 04:36:00,
2013-01-31 23:41:00,45.4,29.3,30.20,WSW,255,1.0,1.0,53,0.00,,,0.05,Wunderground v.1.15,2013-02-01 04:41:00,
2013-01-31 23:46:00,45.4,29.3,30.20,WSW,255,1.0,2.0,53,0.00,,,0.05,Wunderground v.1.15,2013-02-01 04:46:00,
2013-01-31 23:51:00,45.2,28.6,30.20,WSW,255,0.0,2.0,52,0.00,,,0.05,Wunderground v.1.15,2013-02-01 04:51:00,
2013-01-31 23:56:00,45.2,28.6,30.20,WNW,289,2.0,2.0,52,0.00,,,0.05,Wunderground v.1.15,2013-02-01 04:56:00,